Regional Weather Roundup
Issued by NWS

Home | Current Version | Previous Version | Graphics & Text | Print | Product List | Glossary On
Versions: 1 2 3 4 5 6 7 8 9 10 11 12 13 14 15 16 17 18 19 20 21 22 23 24 25 26 27 28 29 30 31 32 33 34 35 36 37 38 39 40 41 42 43 44 45 46 47 48 49 50
000
ASUS43 KIND 292109
RWRIN

WEATHER ROUNDUP FOR INDIANA
NATIONAL WEATHER SERVICE INDIANAPOLIS IN
500 PM EDT SAT AUG 29 2015

NOTE: "FAIR" INDICATES FEW OR NO CLOUDS BELOW 12,000 FEET WITH NO
SIGNIFICANT WEATHER AND/OR OBSTRUCTIONS TO VISIBILITY.

* - STATION DOES NOT REPORT WEATHER SUCH AS PRECIPITATION OR FOG.

+ - STATION NOT QUALITY CONTROLLED BY THE NATIONAL WEATHER SERVICE.
    USE DATA WITH CAUTION...ESPECIALLY DEWPOINT AND RELATIVE
    HUMIDITY OBSERVATIONS.

INZ001>003-010>013-019-020-292200-
NORTHWEST INDIANA

CITY           SKY/WX    TMP DP  RH WIND       PRES   REMARKS
GARY /AIRPORT/ CLOUDY    75  64  69 S7        30.00F
KNOX *+        CLOUDY    70  68  94 SE5       30.01F
LA PORTE +     CLOUDY    73  73 100 E6        30.03F
MICHIGAN CITY+ CLOUDY    70  68  94 SE3       30.02F
MONTICELLO +   PTSUNNY   76  70  82 S5        30.02F
RENSSELAER +   CLOUDY    72  72 100 CALM      30.02F
VALPARAISO     CLOUDY    74  64  71 S6        30.02F

$$

LMZ046-743>745-292200-
SOUTHERN LAKE MICHIGAN

STATION/POSITION TIME  TEMP    WIND        PRES    WAVE
                       AIR SEA DIR/SP/G            HT
                 (UTC) (F)     (DEG/KT/KT) (MB)    (FT)
BURNS HARBOR     2000   74     190/ 10/ 12 1016.6F
MICHIGAN CITY    2000   72     150/  7/  9   N/A
5NW MICH CITY    2100   72 71  150/  8/ 10   N/A     1

$$

INZ004-005-014>016-021>024-292200-
NORTH CENTRAL INDIANA

CITY           SKY/WX    TMP DP  RH WIND       PRES   REMARKS
ELKHART        CLOUDY    70  68  94 CALM      30.06S FOG
GOSHEN         LGT RAIN  71  68  90 SE3       30.05S
LOGANSPORT +   LGT RAIN  77  63  61 S7        30.03F
PERU/GRISSOM   PTSUNNY   79  69  72 SW6       30.03F
ROCHESTER +    LGT RAIN  73  73 100 SE3       30.03F
SOUTH BEND     LGT RAIN  69  67  93 E3        30.05S
WARSAW +       LGT RAIN  72  70  94 NE3       30.04F

$$

INZ006>009-017-018-025>027-292200-
NORTHEAST INDIANA

CITY           SKY/WX    TMP DP  RH WIND       PRES   REMARKS
ANGOLA *+      MOSUNNY   72  64  78 E3        30.05F
AUBURN +       FAIR      73  68  83 CALM      30.06F
FORT WAYNE     LGT RAIN  75  72  90 S6        30.06F
HUNTINGTON +   CLOUDY    75  66  72 CALM      30.05F

$$

INZ028-029-035-036-043>045-051>053-292200-
WEST CENTRAL INDIANA

CITY           SKY/WX    TMP DP  RH WIND       PRES   REMARKS
CRAWFORDSVL +  FAIR      77  64  65 S7        30.04F
GREENCASTLE +  FAIR      79  64  61 CALM      30.05F
LAFAYETTE      LGT RAIN  76  70  82 S5        30.01F
TERRE HAUTE    FAIR      81  66  60 S8        30.03F

$$

INZ030>032-037>040-046>048-054>057-064-065-292200-
CENTRAL INDIANA

CITY           SKY/WX    TMP DP  RH WIND       PRES   REMARKS
COLUMBUS       MOSUNNY   82  66  57 W12       30.05F
FRANKFORT +    FAIR      78  69  73 S5        30.06F
GREENWOOD *+   FAIR      79  66  65 CALM      30.06F
INDIANAPOLIS   PTSUNNY   81  68  64 SW9       30.04F
-EAGLE CREEK   FAIR      80  67  64 SW5       30.05F
KOKOMO *+      FAIR      79  68  69 S7        30.04F
MARION +       FAIR      79  57  46 SW8       30.06F
MT COMFORT *+  FAIR      81  59  47 W7        30.07S
SHELBYVILLE    FAIR      84  65  52 W10       30.05F
ZIONSVILLE +   FAIR      81  65  58 S6        30.06F

$$

INZ033-034-041-042-049-050-058-059-292200-
EAST CENTRAL INDIANA

CITY           SKY/WX    TMP DP  RH WIND       PRES   REMARKS
MUNCIE         FAIR      79  67  66 SW6       30.06F

$$

INZ060-061-067>069-081>083-085>088-292200-
SOUTHWEST INDIANA

CITY           SKY/WX    TMP DP  RH WIND       PRES   REMARKS
EVANSVILLE     FAIR      83  69  62 W5        30.04S
HUNTINGBURG *+ FAIR      84  66  54 SW8       30.04S
WASHINGTON +   FAIR      82  63  53 W6        30.03F

$$

INZ062-063-066-070>080-084-089>092-292200-
SOUTH CENTRAL AND SOUTHEAST INDIANA

CITY           SKY/WX    TMP DP  RH WIND       PRES   REMARKS
BLOOMINGTON    FAIR      80  70  71 CALM      30.05F
MADISON *+     FAIR      84  64  51 S7        30.08F
NORTH VERNON + FAIR      82  68  61 SE3       30.07F
SEYMOUR +      FAIR      90  64  43 S3        30.03F

$$



USA.gov is the U.S. government's official web portal to all federal, state and local government web resources and services.